�������l�o���
Date,Time,MP-1(��Sv/h),MP-2(��Sv/h),MP-3(��Sv/h),MP-4(��Sv/h),MP-5(��Sv/h),MP-6(��Sv/h),MP-7(��Sv/h),MP-8(��Sv/h),����,����(m/s),���J
2021/05/12,00:00,0.646,0.958,0.597,1.175,0.835,0.374,0.657,0.615,�k,5.0,��
2021/05/12,00:10,0.646,0.958,0.594,1.178,0.837,0.376,0.658,0.614,�k�k��,4.0,��
2021/05/12,00:20,0.646,0.957,0.596,1.179,0.835,0.376,0.657,0.614,�k�k��,4.1,��
2021/05/12,00:30,0.648,0.957,0.595,1.178,0.836,0.375,0.659,0.613,�k�k��,3.9,��
2021/05/12,00:40,0.645,0.957,0.595,1.178,0.838,0.375,0.657,0.615,�k�k��,3.5,��
2021/05/12,00:50,0.645,0.957,0.595,1.176,0.837,0.375,0.658,0.613,�k��,3.8,��
2021/05/12,01:00,0.645,0.957,0.596,1.175,0.836,0.375,0.657,0.613,�k��,3.2,��
2021/05/12,01:10,0.645,0.958,0.597,1.178,0.836,0.375,0.658,0.613,�k��,3.3,��
2021/05/12,01:20,0.646,0.956,0.597,1.176,0.836,0.373,0.657,0.613,�k��,3.1,��
2021/05/12,01:30,0.646,0.957,0.596,1.176,0.834,0.375,0.658,0.615,���k��,3.3,��
2021/05/12,01:40,0.646,0.956,0.596,1.178,0.836,0.375,0.658,0.615,�k��,2.3,��
2021/05/12,01:50,0.644,0.959,0.594,1.176,0.835,0.375,0.657,0.615,�k��,2.5,��
2021/05/12,02:00,0.647,0.956,0.596,1.177,0.835,0.375,0.657,0.613,�k��,2.0,��
2021/05/12,02:10,0.646,0.958,0.595,1.175,0.834,0.376,0.659,0.613,�k��,2.0,��
2021/05/12,02:20,0.645,0.954,0.598,1.176,0.835,0.375,0.656,0.614,�k��,2.6,��
2021/05/12,02:30,0.646,0.956,0.595,1.175,0.834,0.375,0.656,0.614,�k��,3.0,��
2021/05/12,02:40,0.645,0.955,0.596,1.174,0.834,0.373,0.657,0.614,�k�k��,2.8,��
2021/05/12,02:50,0.645,0.955,0.596,1.176,0.837,0.375,0.656,0.613,�k�k��,2.3,��
2021/05/12,03:00,0.646,0.956,0.596,1.176,0.835,0.374,0.657,0.613,�k,1.7,��
2021/05/12,03:10,0.646,0.955,0.597,1.175,0.836,0.375,0.658,0.614,�k��,1.1,��
2021/05/12,03:20,0.644,0.955,0.595,1.175,0.835,0.374,0.657,0.614,�k,0.6,��
2021/05/12,03:30,0.644,0.955,0.596,1.177,0.835,0.373,0.656,0.612,�k��,1.4,��
2021/05/12,03:40,0.645,0.955,0.595,1.177,0.839,0.375,0.656,0.614,�k��,1.5,��
2021/05/12,03:50,0.646,0.955,0.596,1.176,0.836,0.373,0.658,0.613,�k�k��,1.7,��
2021/05/12,04:00,0.645,0.956,0.596,1.174,0.835,0.373,0.657,0.614,�k��,1.4,��
2021/05/12,04:10,0.645,0.956,0.595,1.177,0.835,0.373,0.657,0.613,���쐼,1.5,��
2021/05/12,04:20,0.643,0.954,0.596,1.174,0.834,0.375,0.658,0.614,���쐼,1.9,��
2021/05/12,04:30,0.644,0.955,0.596,1.176,0.833,0.373,0.655,0.615,��,2.0,��
2021/05/12,04:40,0.644,0.954,0.595,1.176,0.836,0.374,0.657,0.614,��,2.3,��
2021/05/12,04:50,0.644,0.956,0.597,1.175,0.834,0.373,0.657,0.614,���k��,2.6,��
2021/05/12,05:00,0.645,0.954,0.595,1.176,0.834,0.373,0.656,0.613,���k��,2.3,��
2021/05/12,05:10,0.644,0.956,0.594,1.175,0.836,0.374,0.656,0.614,���k��,1.9,��
2021/05/12,05:20,0.644,0.954,0.597,1.176,0.836,0.373,0.655,0.613,�k��,1.5,��
2021/05/12,05:30,0.645,0.954,0.597,1.176,0.835,0.374,0.657,0.613,�k��,2.0,��
2021/05/12,05:40,0.646,0.955,0.596,1.173,0.833,0.375,0.659,0.615,�k�k��,2.3,��
2021/05/12,05:50,0.646,0.957,0.594,1.177,0.834,0.375,0.657,0.613,�k��,2.3,��
2021/05/12,06:00,0.645,0.956,0.595,1.178,0.836,0.375,0.658,0.613,�k�k��,2.0,��
2021/05/12,06:10,0.645,0.956,0.595,1.177,0.834,0.374,0.657,0.613,�k�k��,2.3,��
2021/05/12,06:20,0.645,0.956,0.597,1.178,0.836,0.375,0.658,0.613,�k�k��,1.5,��
2021/05/12,06:30,0.646,0.955,0.597,1.177,0.836,0.375,0.659,0.614,�k�k��,1.4,��
2021/05/12,06:40,0.646,0.957,0.596,1.175,0.836,0.374,0.660,0.614,�k�k��,1.7,��
2021/05/12,06:50,0.647,0.954,0.596,1.177,0.835,0.376,0.659,0.614,�k,1.7,��
2021/05/12,07:00,0.646,0.954,0.599,1.177,0.834,0.374,0.659,0.614,�k�k��,2.3,��
2021/05/12,07:10,0.645,0.954,0.597,1.176,0.836,0.374,0.658,0.616,�k�k��,1.9,��
2021/05/12,07:20,0.649,0.954,0.597,1.177,0.835,0.372,0.659,0.615,���k��,2.6,��
2021/05/12,07:30,0.648,0.953,0.596,1.176,0.835,0.373,0.658,0.615,���k��,2.6,��
2021/05/12,07:40,0.647,0.954,0.596,1.176,0.834,0.373,0.659,0.614,���k��,3.0,��
2021/05/12,07:50,0.647,0.953,0.596,1.178,0.834,0.374,0.659,0.615,�k��,2.6,��
2021/05/12,08:00,0.647,0.952,0.595,1.178,0.836,0.372,0.657,0.614,��,2.3,��
2021/05/12,08:10,0.647,0.953,0.598,1.178,0.835,0.372,0.657,0.612,��,2.3,��
2021/05/12,08:20,0.646,0.956,0.598,1.176,0.833,0.371,0.658,0.612,��,2.3,��
2021/05/12,08:30,0.646,0.953,0.597,1.178,0.836,0.373,0.658,0.612,��,2.6,��
2021/05/12,08:40,0.646,0.954,0.596,1.178,0.834,0.373,0.658,0.611,��,2.6,��
2021/05/12,08:50,0.649,0.956,0.596,1.177,0.836,0.372,0.659,0.612,��,2.9,��
2021/05/12,09:00,0.647,0.954,0.595,1.178,0.835,0.373,0.655,0.611,���쓌,3.3,��
2021/05/12,09:10,0.646,0.954,0.597,1.175,0.833,0.373,0.658,0.613,��,2.9,��
2021/05/12,09:20,0.645,0.952,0.596,1.179,0.836,0.373,0.657,0.613,���쓌,3.2,��
2021/05/12,09:30,0.645,0.953,0.596,1.176,0.833,0.373,0.656,0.612,���k��,3.1,��
2021/05/12,09:40,0.649,0.953,0.594,1.181,0.836,0.373,0.658,0.612,��,3.4,��
2021/05/12,09:50,0.645,0.952,0.595,1.176,0.833,0.374,0.656,0.612,��,2.9,��
2021/05/12,10:00,0.643,0.952,0.597,1.178,0.833,0.374,0.656,0.612,��,3.4,��
2021/05/12,10:10,0.646,0.954,0.594,1.180,0.835,0.375,0.658,0.612,��,3.5,��
2021/05/12,10:20,0.645,0.954,0.594,1.176,0.835,0.375,0.657,0.613,���k��,3.3,��
2021/05/12,10:30,0.647,0.955,0.594,1.179,0.834,0.373,0.657,0.613,��,3.2,��
2021/05/12,10:40,0.645,0.953,0.594,1.179,0.834,0.374,0.657,0.612,��,3.3,��
2021/05/12,10:50,0.645,0.954,0.597,1.178,0.835,0.374,0.657,0.614,��,4.3,��
2021/05/12,11:00,0.646,0.954,0.593,1.179,0.835,0.373,0.658,0.612,���쓌,3.8,��
2021/05/12,11:10,0.646,0.953,0.595,1.178,0.837,0.374,0.657,0.612,��,3.8,��
2021/05/12,11:20,0.646,0.956,0.595,1.178,0.835,0.374,0.657,0.613,���쓌,3.9,��
2021/05/12,11:30,0.647,0.956,0.595,1.174,0.835,0.373,0.658,0.612,���쓌,3.4,��
2021/05/12,11:40,0.646,0.956,0.597,1.176,0.836,0.373,0.659,0.613,��,3.4,��
2021/05/12,11:50,0.646,0.955,0.596,1.175,0.837,0.374,0.657,0.612,���쓌,3.7,��
2021/05/12,12:00,0.647,0.955,0.594,1.174,0.837,0.375,0.658,0.613,��,3.2,��
2021/05/12,12:10,0.648,0.959,0.597,1.173,0.837,0.376,0.657,0.613,���쓌,4.0,��
2021/05/12,12:20,0.648,0.957,0.594,1.176,0.837,0.374,0.657,0.612,���쓌,4.2,��
2021/05/12,12:30,0.647,0.959,0.595,1.175,0.837,0.374,0.657,0.611,���쓌,3.0,��
2021/05/12,12:40,0.647,0.957,0.595,1.176,0.838,0.375,0.657,0.612,�쓌,3.8,��
2021/05/12,12:50,0.647,0.960,0.595,1.178,0.836,0.375,0.656,0.614,���쓌,3.8,��
2021/05/12,13:00,0.646,0.957,0.595,1.177,0.838,0.374,0.657,0.613,���쓌,4.3,��
2021/05/12,13:10,0.648,0.958,0.597,1.178,0.837,0.375,0.657,0.613,�쓌,4.7,��
2021/05/12,13:20,0.649,0.955,0.597,1.182,0.838,0.373,0.657,0.612,���쓌,4.1,��
2021/05/12,13:30,0.648,0.956,0.596,1.177,0.839,0.376,0.657,0.613,�쓌,3.8,��
2021/05/12,13:40,0.648,0.956,0.596,1.178,0.838,0.374,0.659,0.612,���쓌,3.6,��
2021/05/12,13:50,0.648,0.957,0.596,1.176,0.838,0.373,0.658,0.612,�쓌,3.3,��
2021/05/12,14:00,0.647,0.958,0.595,1.175,0.820,0.374,0.657,0.613,�쓌,4.8,��
2021/05/12,14:10,0.648,0.956,0.598,1.175,0.813,0.373,0.657,0.613,�쓌,3.8,��
2021/05/12,14:20,0.648,0.956,0.597,1.177,0.814,0.376,0.658,0.612,�쓌,4.7,��
2021/05/12,14:30,0.648,0.958,0.596,1.175,0.811,0.373,0.659,0.613,�쓌,5.4,��
2021/05/12,14:40,0.648,0.959,0.598,1.175,0.816,0.374,0.657,0.614,�쓌,5.5,��
2021/05/12,14:50,0.648,0.958,0.595,1.176,0.818,0.375,0.658,0.612,�쓌,5.5,��
2021/05/12,15:00,0.648,0.957,0.596,1.176,0.829,0.374,0.659,0.613,��쓌,6.2,��
2021/05/12,15:10,0.648,0.957,0.596,1.177,0.836,0.375,0.658,0.612,��쓌,6.0,��
2021/05/12,15:20,0.648,0.958,0.596,1.175,0.830,0.376,0.657,0.612,��쓌,6.4,��
2021/05/12,15:30,0.647,0.957,0.596,1.176,0.827,0.374,0.658,0.612,��쓌,6.9,��
2021/05/12,15:40,0.649,0.957,0.596,1.177,0.828,0.375,0.659,0.613,��쓌,5.7,��
2021/05/12,15:50,0.647,0.958,0.597,1.177,0.834,0.374,0.657,0.612,��쓌,6.9,��
2021/05/12,16:00,0.648,0.956,0.597,1.177,0.835,0.374,0.655,0.612,��쓌,6.7,��
2021/05/12,16:10,0.649,0.958,0.596,1.176,0.834,0.374,0.657,0.613,��쓌,7.8,��
2021/05/12,16:20,0.646,0.958,0.596,1.178,0.835,0.374,0.658,0.613,��쓌,7.2,��
2021/05/12,16:30,0.649,0.959,0.596,1.179,0.835,0.374,0.657,0.612,��쓌,6.7,��
2021/05/12,16:40,0.647,0.958,0.594,1.178,0.836,0.374,0.658,0.615,��쓌,7.8,��
2021/05/12,16:50,0.649,0.960,0.595,1.180,0.833,0.375,0.657,0.615,��쓌,7.1,��
2021/05/12,17:00,0.648,0.958,0.595,1.183,0.836,0.375,0.657,0.612,��쓌,7.4,��
2021/05/12,17:10,0.647,0.959,0.597,1.181,0.835,0.375,0.658,0.612,��쓌,7.4,��
2021/05/12,17:20,0.647,0.961,0.595,1.181,0.835,0.375,0.657,0.613,��쓌,6.2,��
2021/05/12,17:30,0.647,0.957,0.598,1.180,0.836,0.375,0.656,0.613,��쓌,6.5,��
2021/05/12,17:40,0.648,0.960,0.597,1.183,0.836,0.375,0.657,0.614,��쓌,7.5,��
2021/05/12,17:50,0.649,0.958,0.597,1.180,0.836,0.376,0.658,0.614,��,7.4,��
2021/05/12,18:00,0.648,0.959,0.599,1.182,0.836,0.376,0.657,0.617,��,7.1,��
2021/05/12,18:10,0.650,0.959,0.597,1.180,0.833,0.375,0.659,0.616,��,6.7,��
2021/05/12,18:20,0.647,0.962,0.600,1.181,0.835,0.376,0.658,0.616,��,6.4,��
2021/05/12,18:30,0.650,0.962,0.600,1.182,0.836,0.376,0.659,0.615,��,6.7,��
2021/05/12,18:40,0.650,0.962,0.598,1.181,0.836,0.375,0.659,0.616,��,5.9,��
2021/05/12,18:50,0.649,0.962,0.600,1.181,0.836,0.377,0.658,0.617,��,5.6,��
2021/05/12,19:00,0.649,0.961,0.598,1.181,0.837,0.376,0.659,0.616,��,6.1,��
2021/05/12,19:10,0.651,0.964,0.599,1.180,0.837,0.375,0.658,0.614,��,6.2,��
2021/05/12,19:20,0.651,0.965,0.599,1.179,0.838,0.375,0.661,0.614,��,4.4,��
2021/05/12,19:30,0.651,0.962,0.598,1.180,0.837,0.377,0.660,0.615,��,5.2,��
2021/05/12,19:40,0.650,0.964,0.599,1.179,0.839,0.376,0.659,0.615,��,5.9,��
2021/05/12,19:50,0.648,0.961,0.598,1.179,0.837,0.376,0.659,0.614,��,6.1,��
2021/05/12,20:00,0.649,0.963,0.599,1.182,0.839,0.377,0.659,0.615,��,6.7,��
2021/05/12,20:10,0.650,0.962,0.598,1.182,0.838,0.376,0.659,0.615,��,7.5,��
2021/05/12,20:20,0.650,0.961,0.599,1.181,0.836,0.377,0.658,0.615,��쐼,6.7,��
2021/05/12,20:30,0.651,0.962,0.598,1.180,0.837,0.375,0.658,0.616,��,6.6,��
2021/05/12,20:40,0.649,0.962,0.598,1.181,0.839,0.376,0.659,0.617,��쐼,6.7,��
2021/05/12,20:50,0.652,0.962,0.599,1.181,0.838,0.375,0.659,0.614,��쐼,6.8,��
2021/05/12,21:00,0.649,0.964,0.600,1.180,0.836,0.375,0.658,0.614,��쐼,6.6,��
2021/05/12,21:10,0.651,0.963,0.599,1.181,0.838,0.376,0.659,0.613,��쐼,6.8,��
2021/05/12,21:20,0.649,0.962,0.598,1.181,0.837,0.374,0.657,0.617,��쐼,6.3,��
2021/05/12,21:30,0.649,0.961,0.599,1.180,0.838,0.374,0.658,0.615,��쐼,6.7,��
2021/05/12,21:40,0.649,0.960,0.597,1.182,0.838,0.376,0.658,0.614,��,7.4,��
2021/05/12,21:50,0.649,0.960,0.599,1.181,0.836,0.374,0.659,0.616,��,7.5,��
2021/05/12,22:00,0.649,0.961,0.597,1.180,0.835,0.376,0.658,0.614,��,7.4,��
2021/05/12,22:10,0.648,0.960,0.598,1.180,0.838,0.376,0.658,0.615,��쐼,6.5,��
2021/05/12,22:20,0.649,0.960,0.597,1.180,0.835,0.376,0.658,0.615,��,6.5,��
2021/05/12,22:30,0.648,0.961,0.599,1.181,0.838,0.376,0.657,0.613,��,6.1,��
2021/05/12,22:40,0.649,0.960,0.599,1.181,0.834,0.375,0.659,0.617,��,6.8,��
2021/05/12,22:50,0.649,0.960,0.597,1.180,0.838,0.376,0.658,0.614,��,6.8,��
2021/05/12,23:00,0.647,0.962,0.599,1.179,0.835,0.375,0.659,0.616,��쐼,6.3,��
2021/05/12,23:10,0.649,0.959,0.598,1.179,0.835,0.375,0.659,0.615,��,5.2,��
2021/05/12,23:20,0.650,0.961,0.597,1.178,0.837,0.373,0.659,0.615,��쐼,5.2,��
2021/05/12,23:30,0.650,0.958,0.598,1.180,0.836,0.373,0.659,0.615,��쐼,5.9,��
2021/05/12,23:40,0.650,0.959,0.598,1.181,0.836,0.376,0.660,0.616,��쐼,6.5,��
2021/05/12,23:50,0.649,0.961,0.599,1.179,0.838,0.376,0.660,0.615,��,8.0,��
